Theta_e
342 340 339 338 336 335 333 333 333 334 335 340 344 345 345 344 343 344 345 346 347 347 346 346 345 344 344 344 344 344 344 346 347 347 346 345 345 345 344 344 344 345 344 344 344 344 345 345 345 344 344 343 343 344 345 346 346 346 346 347 346 345 345 345 347 345 341 340 341 342 343 343 343 344 344 345 345 344 342 342 341 340 340 339 338
343 340 338 338 338 337 336 334 334 334 334 336 340 342 343 342 342 343 343 344 345 345 345 345 345 345 345 345 346 345 344 345 348 348 346 345 344 344 343 343 344 343 342 343 343 343 344 344 345 345 344 344 343 344 346 347 348 349 349 348 347 345 344 344 345 345 343 341 340 341 340 340 341 342 342 343 342 340 339 338 338 337 337 337 337
344 342 338 338 338 337 337 335 334 334 334 334 336 338 340 340 340 340 341 342 343 343 344 344 343 344 344 345 346 346 345 346 347 347 347 346 344 343 343 342 342 342 342 342 342 342 343 343 343 343 344 344 343 343 343 344 345 346 347 347 347 346 345 344 345 344 344 342 340 341 341 340 340 340 340 340 340 339 338 338 337 336 335 336 335
344 344 342 341 340 340 339 338 336 335 334 334 334 335 337 337 337 337 338 340 340 341 342 342 342 342 342 344 345 345 346 346 346 346 346 345 344 343 342 341 341 341 340 340 341 342 342 342 342 342 343 343 343 343 343 342 342 342 342 342 342 342 342 344 345 345 345 343 341 341 341 340 340 341 341 340 340 339 339 338 338 337 337 337 336
343 344 344 344 344 344 344 343 341 338 335 335 334 334 335 335 336 336 336 337 337 338 338 339 341 341 342 343 344 344 345 346 346 345 345 344 343 341 340 340 340 339 338 338 337 338 339 339 340 341 341 341 340 341 341 341 341 341 341 339 338 338 339 340 343 345 345 344 342 340 341 341 341 341 341 341 340 339 339 338 338 337 337 336 337
344 344 345 345 346 346 346 346 345 343 339 337 335 335 334 334 334 335 335 336 337 337 336 335 336 337 339 341 342 343 344 345 345 345 344 343 342 341 340 339 339 338 336 335 335 335 335 336 337 337 338 337 337 337 337 337 338 338 337 336 335 335 336 338 341 343 343 344 343 342 342 342 341 340 340 340 339 339 338 337 336 335 335 334 334
344 344 344 345 346 347 347 347 346 346 344 340 336 335 334 333 333 333 334 335 336 337 336 334 333 333 335 338 340 341 342 344 345 345 344 344 344 343 342 341 339 338 336 335 335 335 334 334 335 334 334 335 335 335 334 334 334 333 333 333 333 333 334 337 341 343 344 344 344 345 344 343 342 340 339 338 338 338 337 336 335 333 333 333 332
343 344 343 344 345 346 346 346 346 346 347 345 342 339 337 335 334 333 333 333 334 334 334 334 333 332 332 334 337 340 341 342 344 345 345 346 345 345 344 344 343 341 340 340 339 339 338 336 336 335 334 334 334 334 334 333 332 330 330 330 331 332 333 336 339 342 344 344 345 344 342 341 339 338 337 336 335 334 333 333 334 334 335 335 333
344 344 344 344 345 345 345 346 346 346 347 347 347 346 343 339 337 335 334 334 333 333 333 333 333 333 332 332 333 337 339 339 340 343 345 346 346 346 346 345 344 344 343 343 343 342 342 341 340 339 339 338 338 338 338 339 338 336 334 333 333 332 331 332 334 336 338 338 338 336 334 333 331 330 330 330 330 331 331 333 336 338 340 340 336
346 346 345 344 345 345 345 346 346 347 346 347 348 349 349 347 345 342 339 336 334 334 333 334 334 334 333 333 332 333 334 335 337 340 343 345 346 347 347 346 345 345 344 344 344 344 343 343 343 343 343 343 343 343 343 343 343 342 341 341 340 338 335 333 332 331 332 332 331 331 330 330 329 330 330 331 332 333 336 339 341 342 344 344 340
350 349 348 346 346 346 346 346 346 347 349 348 347 348 350 351 351 349 346 343 340 337 335 335 337 336 335 334 332 332 332 333 334 336 339 342 345 347 347 346 346 345 344 344 344 344 344 344 344 344 344 344 344 345 344 344 344 344 345 344 344 344 343 340 338 335 335 334 334 335 336 336 336 337 337 337 338 339 341 343 344 345 346 347 346
350 350 350 349 349 349 349 349 348 348 350 351 350 349 350 352 352 352 350 349 348 346 343 340 340 340 340 338 337 337 336 334 332 333 337 341 344 346 346 346 346 345 344 344 343 343 343 344 344 344 344 344 344 345 345 345 345 345 345 345 345 346 346 346 345 344 343 343 343 342 342 342 343 343 343 342 342 343 344 345 345 345 346 347 349
349 349 350 350 351 350 351 351 350 350 351 351 352 352 352 353 353 353 352 351 351 351 350 347 346 346 347 346 345 344 342 338 335 334 336 340 344 345 345 346 346 345 345 344 344 344 344 343 343 344 343 343 343 344 344 344 345 345 345 346 346 346 346 347 347 347 347 347 347 346 346 346 346 346 345 345 345 345 345 345 345 345 346 347 349
348 348 348 349 349 350 350 350 350 350 351 351 352 353 353 353 353 353 353 352 351 351 351 351 351 351 352 351 350 349 346 343 339 337 337 340 342 344 345 345 346 345 345 345 345 345 344 344 343 342 342 342 342 342 343 343 344 345 345 345 346 346 346 347 347 347 348 348 348 347 347 347 347 347 347 346 346 346 346 346 346 346 347 348 349
345 345 345 346 347 348 348 349 349 349 350 350 351 351 352 352 352 352 352 352 351 351 351 352 352 353 353 352 351 351 349 346 344 341 340 341 342 343 345 345 345 346 345 345 345 345 345 345 345 344 344 343 343 343 343 343 343 344 344 345 346 346 346 346 346 347 347 347 347 348 348 347 347 348 347 347 347 347 347 347 347 347 348 348 349
342 342 342 342 343 343 343 344 345 347 348 349 350 350 350 350 350 350 351 350 351 351 351 351 351 351 352 352 351 350 349 349 347 346 345 344 344 344 345 345 346 346 346 346 346 345 345 345 346 346 345 345 345 344 344 343 343 343 343 343 344 344 345 345 345 345 346 347 348 349 349 349 349 348 348 349 349 348 347 348 348 348 349 349 349
339 338 338 338 338 338 339 339 340 342 343 344 345 346 346 347 348 348 348 348 348 349 350 350 351 351 351 351 351 350 350 350 349 349 348 348 347 346 346 346 345 345 346 347 347 347 347 347 346 346 346 345 345 345 344 344 344 344 344 344 344 344 344 344 344 345 347 348 349 349 350 350 350 349 349 350 351 349 348 348 349 349 350 351 351
334 334 333 333 333 333 335 336 337 338 339 340 341 341 341 343 345 345 344 344 345 346 347 348 349 350 350 351 350 350 350 350 349 349 349 349 348 348 348 348 347 347 347 348 348 348 349 349 349 348 348 347 346 346 346 345 345 345 345 346 346 345 345 346 346 347 348 348 348 349 350 350 350 350 350 351 351 350 349 349 350 351 351 353 353
329 329 329 330 331 333 335 336 336 336 337 337 338 339 339 340 340 340 339 340 340 340 342 344 347 349 349 350 350 350 350 350 350 351 351 350 349 349 349 350 350 350 351 351 351 351 351 351 351 351 350 350 350 349 349 348 348 347 347 348 348 348 348 348 349 349 349 349 349 350 350 350 351 351 351 351 352 351 351 352 353 353 353 354 355
323 324 324 325 327 331 334 336 335 335 336 336 336 337 337 337 337 337 337 337 337 337 338 341 343 344 344 345 346 348 349 349 349 350 350 350 350 350 350 351 351 351 352 352 352 352 353 353 353 353 352 352 352 351 351 351 350 350 349 350 350 350 350 349 350 350 350 350 350 351 351 350 351 352 353 352 352 352 353 354 354 354 354 354 355
318 320 320 321 321 323 325 328 330 331 333 335 335 335 336 336 336 336 336 336 337 337 336 336 337 336 336 336 338 340 341 342 343 344 345 346 347 348 349 349 349 349 350 350 351 352 352 352 353 353 352 352 352 352 352 352 352 351 352 352 352 351 352 351 352 352 352 352 352 351 351 351 351 352 354 354 354 354 355 355 355 355 354 354 355
313 315 316 317 318 318 318 320 321 323 326 330 333 335 336 337 337 337 337 337 337 336 334 333 332 332 331 330 330 330 331 333 335 337 339 340 342 344 345 346 346 347 348 349 349 350 350 351 351 351 351 351 351 351 351 350 351 351 351 352 352 352 352 352 352 353 353 353 353 353 352 352 351 352 352 353 354 354 354 354 354 353 354 353 353
310 311 312 312 313 315 316 317 317 318 320 324 329 332 334 335 335 335 336 336 335 334 333 332 332 333 332 331 329 328 327 327 327 329 330 332 333 335 336 337 338 340 342 344 345 345 346 347 348 349 349 350 350 350 350 350 350 350 350 351 352 351 351 351 351 351 351 352 352 352 353 353 353 352 352 352 353 353 353 353 353 353 353 352 352
309 309 310 310 311 311 312 313 314 315 315 317 320 325 328 331 332 332 332 332 332 331 331 331 331 332 332 331 329 328 326 324 324 324 324 325 326 326 327 328 328 330 332 334 335 336 337 338 340 342 344 345 346 346 347 348 350 350 351 352 352 351 351 350 350 349 349 349 350 350 351 351 352 352 353 353 353 352 352 352 352 352 352 352 352
307 307 308 308 308 309 310 310 311 312 313 314 314 316 319 322 324 326 327 327 327 327 327 327 327 327 326 325 324 323 322 321 320 321 321 322 322 322 323 323 323 324 326 327 328 329 329 330 331 333 334 335 336 337 339 341 344 345 347 347 348 348 348 347 347 346 346 347 348 349 349 350 351 351 351 351 351 351 351 352 352 353 353 353 353
307 307 307 307 306 307 308 309 309 311 312 312 312 312 313 315 317 318 319 320 320 321 322 322 322 322 320 320 319 318 317 317 317 317 317 318 318 320 321 322 323 324 326 327 327 327 328 328 328 328 328 329 329 329 330 332 334 336 338 340 341 344 345 344 344 344 344 345 346 347 348 349 349 349 349 349 349 350 351 351 352 353 353 354 354
306 306 306 306 306 306 306 307 308 310 312 313 314 313 312 313 314 314 315 315 315 316 316 316 316 316 316 315 315 315 314 315 314 314 315 315 316 318 319 321 322 324 325 327 327 327 327 327 327 327 328 328 329 330 330 330 330 332 333 334 337 340 341 342 343 344 344 344 345 345 346 347 347 347 347 348 348 348 349 350 351 351 352 352 353
305 306 306 306 306 306 306 306 307 310 313 316 319 319 318 318 317 316 315 316 315 315 315 314 314 314 314 313 313 313 313 313 313 313 314 314 314 315 316 317 318 319 321 322 322 323 324 324 325 325 326 327 328 329 329 330 330 330 331 332 334 335 336 336 338 341 342 342 343 344 344 344 345 345 345 346 346 347 347 348 349 350 350 351 351
306 306 306 307 306 306 306 306 307 312 317 320 321 321 322 321 321 319 317 317 316 316 316 316 316 315 315 315 314 314 313 313 313 312 313 312 312 313 313 313 313 313 314 315 315 316 317 318 319 320 321 322 323 324 325 326 327 327 328 328 329 330 330 331 334 337 339 340 340 340 342 343 343 343 343 343 343 344 345 346 346 347 348 349 350
306 306 306 307 307 307 308 308 308 313 319 322 321 321 321 321 321 321 320 319 318 317 318 318 318 318 317 317 316 315 315 314 314 313 313 313 313 313 313 313 312 312 312 312 312 312 313 313 313 314 315 315 317 318 318 319 320 321 322 323 324 325 326 327 328 331 334 337 339 340 341 342 342 342 342 341 340 342 345 345 344 345 346 347 348
307 308 309 309 308 308 309 310 309 312 317 320 321 321 321 321 321 320 320 319 319 318 318 318 319 319 319 319 318 317 316 316 315 315 315 315 314 314 314 314 314 313 313 313 313 313 313 312 312 312 312 312 312 312 313 313 313 314 315 316 317 319 321 322 322 324 326 329 332 334 335 336 338 338 339 339 339 341 343 344 343 345 347 347 347
308 310 311 310 308 309 312 313 312 314 317 318 318 319 319 320 320 320 319 319 319 318 318 317 318 318 319 319 319 318 317 317 316 316 316 316 315 315 315 314 314 314 314 313 313 313 313 312 312 312 312 312 312 312 312 312 312 312 311 311 312 313 314 316 317 318 319 320 322 324 326 327 329 331 332 333 335 337 339 340 341 343 345 346 347
307 308 309 309 308 309 312 314 315 316 317 318 317 317 318 318 319 318 318 317 317 317 317 317 317 318 318 318 319 318 318 317 317 317 317 316 316 315 315 315 314 314 314 314 313 313 313 313 312 312 312 312 312 312 312 312 312 312 312 311 311 311 312 312 313 313 314 315 316 317 319 320 321 323 324 325 326 328 330 332 334 336 338 341 344
306 307 307 307 308 308 311 314 316 317 317 317 318 317 317 317 318 318 318 317 317 317 317 317 318 318 318 318 318 318 318 318 317 317 317 316 316 315 315 315 315 314 314 314 314 314 313 313 313 312 312 312 312 312 312 312 312 312 312 312 311 311 312 311 311 312 312 312 312 313 314 315 316 317 319 320 321 322 323 324 326 327 329 332 334
308 308 307 307 308 309 310 313 315 317 317 317 317 317 317 317 317 317 317 317 318 318 318 318 318 318 318 318 318 318 317 317 317 317 316 316 316 315 315 316 317 317 316 315 315 314 314 313 313 313 312 312 312 312 312 312 312 312 312 312 312 312 312 311 311 311 312 312 312 312 312 312 313 313 314 315 317 318 319 320 321 322 323 324 325
307 307 307 306 308 309 310 312 314 315 316 316 316 317 317 316 316 317 316 316 316 317 317 317 317 317 317 317 317 317 317 317 317 317 316 316 315 315 315 316 317 317 316 316 315 315 314 314 314 313 313 312 312 312 313 313 313 312 312 312 312 312 312 312 312 312 311 311 311 311 312 312 312 312 312 312 313 314 315 316 318 319 320 321 322
306 306 305 305 306 308 309 311 312 312 312 314 314 314 315 315 315 315 316 315 315 315 316 316 316 316 316 316 316 316 316 316 316 315 315 314 314 314 315 316 317 316 316 315 315 315 314 314 313 313 313 313 313 313 313 312 312 312 312 312 312 312 312 312 312 312 312 312 311 311 311 311 311 312 312 312 312 312 313 313 314 315 316 317 319
308 306 305 304 305 305 306 308 310 309 310 311 312 312 313 313 313 314 314 314 314 314 314 315 314 314 315 315 314 314 314 313 313 314 314 314 314 314 315 316 315 315 315 314 314 313 313 313 313 312 312 312 312 312 312 312 312 311 311 311 311 311 311 312 312 312 312 312 312 312 312 312 312 311 312 312 312 312 312 312 313 313 313 314 315
309 307 305 304 304 303 304 306 308 308 309 309 309 309 310 311 311 312 313 313 313 313 313 313 313 313 313 313 313 313 312 312 313 313 313 313 314 314 314 314 314 314 314 313 313 312 312 312 311 311 311 310 311 311 310 310 310 310 310 310 310 310 310 311 311 311 311 312 312 312 312 312 312 312 312 312 312 312 312 312 313 313 313 313 313
309 307 305 304 304 304 304 306 307 307 307 306 305 305 306 307 308 310 311 311 311 312 312 312 312 311 311 311 310 310 310 311 311 311 312 312 312 312 313 313 313 313 312 312 311 311 311 310 310 310 309 309 309 309 309 309 309 308 308 309 309 309 309 310 310 310 310 310 311 311 312 312 312 312 313 313 313 313 313 313 313 313 313 313 313
309 307 305 304 304 303 304 305 306 305 305 304 303 304 305 306 308 309 309 310 310 310 310 310 310 310 309 309 308 308 308 309 310 310 310 311 311 311 311 311 311 311 311 310 310 310 309 309 309 308 308 308 308 308 307 308 308 308 307 308 308 308 308 309 309 309 309 309 310 310 310 311 311 311 312 312 312 312 313 313 313 313 313 313 313
308 306 304 304 304 303 303 303 304 304 304 304 304 305 307 308 308 308 308 308 308 308 308 308 308 308 308 307 307 307 307 308 308 309 309 309 309 309 309 309 309 309 309 309 308 308 308 308 307 307 307 307 306 306 306 306 306 306 306 306 307 307 307 307 308 308 308 308 308 309 309 310 310 310 310 311 311 311 312 312 312 312 313 313 314
307 305 303 302 302 302 301 301 302 303 304 305 305 306 307 307 307 307 306 306 306 306 307 307 307 307 307 306 305 305 306 306 307 307 307 307 307 307 308 308 307 307 307 307 307 307 306 306 306 306 305 305 305 305 305 305 305 305 305 305 305 306 306 307 307 307 307 307 307 308 308 308 309 309 309 310 310 310 310 310 311 311 312 313 313
306 304 302 301 300 301 301 301 302 303 304 305 305 306 306 306 306 305 305 305 305 305 305 305 305 305 305 304 304 304 305 305 305 305 305 305 305 305 306 305 305 305 305 305 305 305 305 304 304 304 304 304 303 303 303 304 304 304 304 304 304 305 305 305 306 306 306 306 307 307 307 307 308 308 308 309 309 309 309 309 309 310 311 312 313
304 302 301 301 301 302 303 303 304 304 304 304 304 304 304 304 304 303 303 304 304 304 303 303 303 303 303 303 303 303 303 303 303 304 304 304 304 303 303 303 303 304 304 304 303 303 303 303 303 302 302 302 302 302 302 302 302 302 302 303 303 304 304 304 304 304 305 306 306 307 307 307 307 308 308 308 308 309 309 309 309 309 310 310 311
302 301 301 302 302 303 303 303 303 303 303 302 302 302 302 302 302 301 301 302 302 302 302 302 302 302 302 302 302 302 302 302 302 302 302 302 301 301 301 301 301 301 302 302 301 301 301 301 301 301 301 301 301 300 300 300 300 300 300 301 301 302 302 302 302 303 304 305 305 306 306 307 308 308 308 308 308 308 309 309 309 309 309 309 309
300 300 301 302 302 302 302 302 301 301 301 301 301 300 300 300 300 300 300 300 300 300 300 300 300 300 300 301 301 301 301 301 301 301 300 300 300 300 300 299 299 299 299 299 299 299 299 299 299 299 299 299 299 299 299 299 299 299 299 299 299 299 299 300 301 302 303 303 304 305 306 306 307 308 308 308 308 307 307 308 308 308 308 308 308
299 300 301 301 301 301 300 300 299 299 299 299 299 299 299 299 299 299 298 298 298 298 298 298 298 298 298 299 299 299 299 299 299 299 299 298 298 298 298 298 298 298 298 298 298 297 297 298 298 298 298 298 298 298 298 298 298 298 297 297 297 297 297 298 298 299 300 300 301 302 303 304 305 306 306 307 307 307 307 307 307 307 307 308 307
298 299 300 300 300 299 299 298 297 297 297 297 297 298 298 298 298 297 297 296 296 297 297 297 297 297 297 297 297 297 297 297 297 297 297 297 297 297 297 297 297 297 296 296 296 296 296 297 297 297 297 297 297 297 297 297 296 296 296 296 296 296 296 296 296 296 297 297 297 298 298 299 300 301 302 304 305 306 307 307 307 307 307 307 307
297 297 298 298 298 298 297 296 296 296 296 297 297 297 297 297 296 296 296 295 296 296 296 296 296 296 296 296 296 296 296 296 296 296 296 296 296 296 296 296 296 296 296 296 296 296 296 296 296 296 296 296 296 296 296 296 295 295 295 295 295 295 295 295 295 296 296 295 296 296 296 297 297 298 299 300 301 302 304 306 306 307 307 307 307
297 296 296 296 296 296 296 295 295 296 296 296 296 296 296 296 296 295 295 295 295 295 295 295 295 295 295 295 295 295 295 295 295 295 295 295 295 295 295 295 295 295 295 295 295 295 296 296 296 296 296 295 295 295 295 295 294 294 294 294 294 294 294 294 294 294 294 294 295 295 296 297 297 298 298 299 299 300 301 303 304 305 306 306 307
Wind_Speed
15 16 17 16 15 14 15 15 15 15 15 14 13 12 10 9 8 8 9 8 8 7 7 7 7 7 8 8 8 9 9 8 7 7 7 7 7 7 7 7 7 7 8 8 8 8 9 9 9 9 9 10 10 11 11 12 12 13 12 13 13 13 14 14 16 17 16 13 12 12 12 13 12 11 11 12 13 14 15 15 16 16 16 17 17
15 15 16 16 16 15 14 15 15 15 15 15 15 13 12 11 10 9 10 10 9 9 8 7 8 8 9 9 9 9 9 9 8 8 8 8 8 7 7 7 7 7 7 7 7 8 9 9 9 9 9 10 10 10 11 11 11 11 11 12 12 12 13 14 15 17 18 16 15 14 14 14 13 12 12 13 14 14 14 14 14 14 14 15 16
15 14 15 15 15 15 15 14 15 15 15 16 15 15 14 13 12 11 10 10 10 10 9 9 9 9 9 10 10 10 10 10 9 9 9 8 8 8 8 8 8 8 8 8 7 8 9 9 8 8 9 10 10 10 11 11 11 11 11 12 12 12 12 13 14 16 18 18 17 17 17 15 13 12 12 13 13 13 13 13 12 12 12 13 14
16 14 13 13 13 13 13 14 14 15 16 16 16 16 16 15 13 12 11 11 11 10 10 10 10 10 10 10 10 10 10 10 10 10 9 9 9 9 9 9 9 9 9 9 9 9 10 10 9 9 10 10 10 11 11 12 12 12 13 12 12 13 13 13 13 14 17 19 18 17 16 14 13 12 12 13 13 12 12 12 12 12 11 12 13
17 16 15 14 13 13 13 13 13 14 16 17 17 17 17 17 16 15 14 13 12 11 11 11 10 11 11 10 10 10 10 10 10 10 10 10 10 9 9 9 9 9 10 10 10 11 11 11 10 10 11 11 11 11 12 12 13 13 13 13 13 13 13 13 14 14 16 18 18 15 13 13 13 13 13 14 15 15 14 14 14 14 13 13 14
20 19 18 18 17 16 15 14 14 14 15 17 18 18 18 18 18 17 16 15 14 13 13 12 12 12 12 12 12 11 10 10 10 9 9 10 10 10 10 10 10 10 10 11 11 11 12 12 12 12 12 13 13 13 13 13 14 14 14 14 13 12 13 13 13 14 15 16 16 15 14 14 15 15 15 15 17 17 17 17 16 16 16 16 17
22 21 20 19 19 19 18 17 17 16 15 16 17 18 19 19 19 19 18 17 17 16 15 15 15 14 14 13 13 12 11 11 10 9 9 9 9 9 9 9 10 10 10 10 10 10 11 12 12 12 13 13 13 13 13 13 13 14 14 14 13 13 13 13 13 13 14 15 16 16 17 17 17 17 17 17 17 18 19 20 19 18 19 20 20
25 24 22 21 21 21 20 19 18 18 16 16 17 18 19 19 20 20 20 19 19 18 18 17 17 16 16 16 15 14 13 12 11 10 10 9 9 9 9 9 9 9 8 8 8 9 10 11 11 12 12 12 12 12 12 13 13 14 14 14 14 14 14 14 14 15 16 17 18 18 19 20 20 19 19 19 19 19 20 21 22 21 21 22 22
26 26 25 23 23 22 22 21 20 19 18 17 17 17 18 19 20 20 20 21 21 20 19 19 18 18 18 17 17 16 15 14 13 12 11 11 10 10 10 10 10 10 9 9 9 8 9 9 10 11 11 11 11 11 11 12 13 14 14 14 14 15 15 15 16 16 17 19 20 20 21 22 21 20 20 19 19 19 20 21 22 22 23 24 23
22 24 25 26 25 24 22 21 19 19 20 20 19 18 18 18 19 19 20 21 21 21 20 20 20 20 19 19 19 19 18 17 16 14 13 12 12 12 12 12 12 12 11 11 10 10 10 10 11 11 10 10 11 11 11 12 12 13 14 14 14 15 16 16 17 17 18 19 20 20 21 22 20 19 20 20 18 18 19 20 21 22 24 26 26
20 21 23 26 26 25 23 22 21 20 20 21 21 21 20 19 18 18 19 20 21 21 21 21 20 20 20 20 20 19 19 19 18 17 16 15 14 14 14 14 14 14 14 14 13 12 12 13 13 13 13 12 12 13 13 13 13 13 13 13 14 14 15 16 17 17 18 19 19 19 20 21 19 18 19 19 18 19 19 20 22 23 24 26 28
22 22 23 25 26 25 23 22 23 23 21 21 22 23 22 20 19 19 19 20 20 21 22 22 21 20 20 20 20 20 20 20 20 19 18 18 17 16 15 15 15 16 16 16 15 15 15 15 16 16 16 15 15 15 15 14 14 14 15 14 14 14 15 15 16 17 17 18 19 19 20 20 20 18 18 18 19 20 21 22 23 24 26 27 28
18 18 20 22 22 23 22 23 24 25 24 23 23 23 23 21 20 20 20 21 22 22 23 22 21 20 19 20 20 20 21 21 20 20 19 19 18 17 16 16 16 16 17 17 17 17 17 17 17 18 17 17 17 17 17 17 17 17 17 17 16 16 15 16 16 17 17 18 20 21 20 21 21 21 19 19 21 22 23 24 25 26 27 28 29
12 10 11 12 14 15 17 20 21 22 22 22 21 22 22 21 21 21 21 22 23 24 24 23 22 20 20 21 20 21 21 21 20 20 20 19 19 18 17 17 17 17 17 18 19 19 19 19 19 19 18 18 18 18 19 19 19 19 20 20 19 19 18 18 18 18 19 20 22 23 23 22 24 24 23 23 24 25 25 26 26 28 29 30 31
12 11 10 10 10 10 11 13 14 13 13 13 14 16 17 18 18 19 19 20 21 22 22 22 22 22 22 22 21 22 23 22 21 21 21 20 19 19 19 19 19 19 19 19 20 20 21 21 22 21 21 20 20 20 20 21 22 22 22 22 22 22 21 21 20 20 21 23 24 26 26 26 27 28 27 26 27 27 27 27 28 30 32 32 33
15 13 12 11 11 10 8 7 7 7 7 7 8 9 9 10 11 12 13 13 13 13 14 16 18 21 22 22 23 25 25 24 23 23 22 22 21 21 21 21 21 21 21 21 21 21 22 22 23 23 23 22 22 22 22 22 23 24 25 25 25 25 25 24 24 24 25 25 27 28 29 29 29 30 30 30 29 28 27 28 29 30 31 32 33
16 14 13 12 11 10 9 8 7 5 5 5 5 6 6 6 6 6 7 6 6 6 7 10 14 16 17 18 21 23 24 24 24 24 23 23 22 22 22 23 23 24 23 23 23 23 23 23 23 24 24 24 24 24 24 24 24 25 26 26 27 28 28 28 28 28 28 29 30 30 30 30 29 28 29 29 29 28 28 29 30 28 28 30 31
15 14 13 12 11 10 9 9 9 8 8 8 7 5 4 4 5 5 5 4 4 3 2 5 8 11 13 16 18 19 20 21 21 21 20 20 20 20 20 20 22 23 24 24 25 25 26 26 25 26 26 27 27 27 27 27 27 27 27 27 28 29 29 30 31 31 31 31 31 31 30 29 28 27 27 27 26 26 27 29 29 26 27 29 30
15 14 13 12 11 10 9 9 10 9 9 10 10 8 7 7 6 5 3 2 1 1 2 4 7 9 11 12 12 13 14 15 15 15 16 17 17 17 17 17 19 21 22 23 23 25 26 26 27 27 27 27 28 28 28 28 28 28 28 28 29 30 30 31 32 32 32 32 31 29 28 27 26 26 26 25 24 24 25 26 25 25 27 29 28
13 13 12 11 11 10 9 9 9 9 9 9 9 8 7 8 8 7 6 5 4 2 2 5 7 7 8 8 8 9 11 12 12 13 14 15 15 15 15 15 16 18 19 20 20 21 21 20 21 24 25 25 26 27 26 27 27 27 27 28 29 29 30 31 31 31 31 30 29 28 27 27 26 25 25 25 24 24 24 24 24 24 27 28 26
10 10 10 9 9 8 8 8 8 8 8 8 8 7 6 6 6 5 5 5 5 4 3 2 2 2 1 1 2 4 5 6 8 9 10 11 12 12 13 13 14 15 16 18 19 19 19 19 19 22 24 24 25 25 25 25 26 26 27 27 27 27 28 29 29 29 29 29 28 28 27 27 26 25 24 24 24 24 24 25 25 26 27 28 28
7 7 7 7 7 6 6 6 6 6 7 6 6 6 6 4 3 4 4 4 4 4 4 3 1 1 2 3 3 3 3 4 5 7 8 8 8 9 10 11 12 12 14 15 17 18 18 18 18 20 21 21 22 22 22 23 24 24 25 25 25 25 25 26 26 26 26 26 26 26 26 26 26 25 25 25 25 25 25 26 27 28 28 29 31
4 4 4 5 5 6 6 5 5 5 5 6 6 6 6 6 5 5 5 5 4 3 3 2 0 2 3 4 5 6 6 6 7 7 8 9 9 9 9 9 10 10 11 13 14 15 15 16 16 17 18 19 19 19 19 20 19 19 20 20 21 23 23 24 25 25 25 26 26 26 25 23 23 24 25 25 25 25 25 26 27 28 29 30 31
3 3 3 3 3 3 4 4 5 6 6 6 6 6 7 6 6 6 6 6 5 5 4 3 3 4 5 5 6 7 8 8 8 7 8 8 8 9 9 10 9 9 10 11 12 12 13 13 14 14 15 16 16 16 16 17 17 18 18 18 20 22 23 25 27 27 27 27 26 26 25 22 21 22 22 22 23 24 25 26 27 27 27 28 30
3 3 3 3 4 4 3 3 4 4 6 6 7 7 8 7 7 7 7 7 7 7 7 6 6 6 6 6 7 7 8 8 8 9 9 9 9 9 10 10 10 10 9 9 10 10 11 11 11 12 12 13 13 13 13 14 15 16 17 18 19 20 21 23 24 24 24 22 20 20 21 21 20 22 23 23 25 26 25 25 24 24 25 26 27
4 4 4 4 4 4 4 4 4 4 4 5 6 6 7 7 7 7 7 7 7 7 8 8 8 8 8 8 7 7 8 8 8 8 9 9 9 9 10 10 10 10 10 10 10 10 11 11 11 12 12 12 13 13 13 13 14 15 16 17 15 13 13 15 15 16 17 17 17 17 19 19 19 21 23 25 25 24 24 23 22 22 22 23 25
5 5 5 5 5 4 4 5 5 5 4 4 4 5 5 5 6 6 6 6 6 6 7 7 7 7 8 8 8 8 8 8 8 8 8 8 8 8 8 9 9 9 9 9 10 10 10 11 11 12 12 13 13 13 13 14 14 15 15 15 14 12 11 11 12 12 14 15 15 16 17 17 18 19 21 22 21 21 21 21 21 21 22 23 24
4 5 5 5 4 4 4 4 4 4 4 3 2 2 2 2 3 4 4 4 5 5 5 5 5 5 6 6 7 8 8 9 9 9 9 9 9 9 9 9 9 10 10 10 10 11 11 11 12 12 12 12 13 13 14 14 14 14 14 14 14 14 14 14 13 13 14 15 16 17 17 17 17 18 19 20 20 21 21 20 20 21 22 23 23
3 4 4 4 4 3 3 4 4 4 3 3 3 3 2 1 1 2 3 3 3 4 4 4 4 3 4 4 5 6 7 8 8 9 9 10 10 10 10 11 11 12 12 13 13 13 13 14 14 14 14 14 14 14 15 14 14 14 14 14 14 15 16 16 16 15 14 15 16 17 18 17 18 18 19 20 21 20 20 21 21 21 22 23 23
1 2 3 3 3 3 3 4 5 5 4 4 4 5 5 4 3 3 2 3 3 2 2 3 3 3 3 4 4 4 5 6 6 7 8 9 10 11 11 12 13 13 14 15 15 15 16 16 17 17 17 18 18 18 18 18 18 18 18 17 17 17 18 18 19 18 17 17 18 18 19 19 20 22 22 23 23 22 21 22 21 21 21 22 23
1 1 1 1 1 2 3 3 4 5 6 6 5 5 5 5 5 5 4 4 4 4 3 3 4 4 4 4 5 5 5 5 6 6 7 8 9 10 11 12 13 13 14 15 16 16 17 18 18 19 19 19 20 20 20 20 21 21 21 21 20 21 21 20 21 21 20 20 20 21 22 22 24 25 26 26 26 26 24 24 23 22 21 21 23
2 2 2 1 1 1 2 3 4 4 5 6 6 6 5 4 5 6 6 6 7 7 7 6 6 5 5 5 5 6 6 6 6 7 8 9 9 10 11 11 12 13 13 14 15 16 17 18 18 19 19 19 19 20 20 20 20 21 21 21 21 21 22 22 23 23 23 23 23 23 24 24 25 26 27 28 28 29 28 27 27 26 23 21 23
2 1 1 1 1 1 2 2 3 3 4 4 4 5 5 4 4 5 6 7 8 8 9 8 7 7 7 7 7 7 8 8 8 9 9 10 11 11 12 12 13 13 14 14 14 15 16 16 17 18 18 18 18 19 19 19 20 20 20 21 21 21 21 22 23 23 24 24 25 25 25 25 26 26 28 29 30 31 31 30 31 30 26 23 23
3 2 2 1 0 0 1 2 2 3 3 3 3 3 3 4 4 4 4 4 5 7 8 9 9 8 9 9 9 9 10 10 11 11 11 12 12 12 14 14 15 14 14 14 15 15 15 16 16 17 18 18 18 19 19 19 20 20 20 21 21 21 22 22 23 23 24 24 25 25 25 26 27 27 28 29 30 31 31 31 32 33 32 31 30
5 4 3 3 1 1 1 2 2 2 2 3 2 2 2 3 3 4 4 4 5 5 7 8 9 9 10 10 11 11 12 13 13 13 14 14 13 14 14 13 11 11 11 13 14 15 15 15 15 16 17 18 19 19 19 20 20 21 22 23 22 22 23 23 23 24 25 25 26 26 26 27 28 28 28 29 30 31 32 32 33 33 34 35 36
6 4 4 3 2 2 3 3 3 4 5 3 2 2 2 3 3 3 3 4 6 6 6 8 9 11 12 13 13 14 14 14 15 15 15 15 16 16 14 10 7 7 8 9 10 11 12 12 12 13 15 17 18 19 20 20 21 22 22 24 24 24 24 25 25 25 26 26 27 28 28 28 29 29 30 30 30 30 31 32 33 34 34 35 36
8 7 5 4 4 4 4 3 4 7 9 7 6 5 4 3 4 4 4 5 6 6 6 8 10 10 11 12 14 16 17 17 18 18 18 18 18 16 12 8 7 8 8 7 8 7 7 8 9 10 12 13 15 17 18 19 21 22 22 23 24 24 25 25 26 26 26 27 28 29 29 30 30 31 32 32 32 32 32 32 33 34 35 36 36
9 8 7 7 6 7 6 4 4 6 7 6 7 7 6 4 5 6 6 6 6 6 7 8 8 8 9 10 11 14 17 18 17 15 14 14 13 11 9 8 9 9 8 7 8 7 7 7 8 10 11 13 15 17 18 19 20 22 24 24 24 24 25 25 25 25 26 26 27 28 29 30 31 31 32 33 34 34 35 35 35 35 35 35 36
10 10 10 9 8 8 7 5 4 4 4 4 7 9 9 8 7 6 6 6 6 6 7 7 7 8 8 7 8 9 11 11 10 8 8 8 8 8 8 8 9 10 9 8 8 9 9 8 9 10 12 15 16 17 20 22 24 25 25 23 21 22 24 25 25 25 25 25 26 27 28 29 30 30 32 33 34 35 36 37 38 38 37 37 36
11 11 12 11 9 8 6 4 3 3 4 6 9 11 11 11 9 7 6 7 6 6 6 7 7 7 7 8 9 10 9 7 7 7 8 7 7 8 8 8 8 9 9 8 9 9 9 9 9 10 12 14 15 16 19 22 24 25 25 21 18 18 20 22 23 25 26 26 27 28 28 28 28 29 31 33 34 35 37 38 38 39 39 39 39
12 12 12 11 10 9 6 4 4 4 5 7 9 8 7 7 5 5 5 6 6 6 7 7 6 7 9 12 13 14 12 9 8 8 8 7 7 8 8 8 9 10 9 9 9 9 9 9 10 11 13 14 14 15 17 18 19 20 21 20 18 18 20 21 22 24 27 28 28 28 27 27 28 30 33 35 36 36 37 37 37 38 38 39 40
13 13 13 11 10 8 7 6 6 5 4 5 5 4 3 3 4 4 5 5 5 6 6 6 6 7 10 13 14 13 12 9 8 8 8 8 8 8 8 8 10 10 10 9 9 10 11 12 13 14 15 15 16 17 17 16 16 18 19 19 19 21 23 23 24 25 26 26 26 25 26 28 30 33 34 35 35 36 35 33 33 35 36 37 39
13 14 14 13 11 11 10 10 8 6 4 4 3 2 3 5 6 6 5 4 5 5 6 7 7 8 9 12 14 13 11 8 7 7 8 8 8 9 8 8 9 10 10 10 10 12 14 15 16 17 18 18 18 19 18 17 18 19 20 19 20 22 23 24 24 25 25 25 25 27 29 31 32 33 33 34 35 35 34 33 32 33 36 38 39
14 14 14 14 13 12 10 8 6 4 3 4 3 3 4 6 6 5 4 3 4 5 5 6 8 8 8 9 11 10 8 7 7 8 8 8 9 9 9 9 11 13 15 15 15 15 17 18 18 19 20 20 20 20 20 20 20 20 20 20 21 22 22 22 23 23 24 26 28 30 32 33 33 34 35 36 37 37 36 35 34 36 39 41 41
14 14 13 11 9 6 4 3 2 3 4 4 3 3 3 4 4 4 4 4 5 5 5 6 7 8 8 8 8 7 7 7 8 8 8 8 9 9 9 11 14 16 17 17 18 19 21 20 20 19 19 19 19 19 19 19 19 19 19 20 20 21 21 21 22 23 25 27 30 31 32 34 35 37 38 39 40 40 40 38 36 36 37 38 38
14 12 9 5 3 2 2 2 3 5 6 3 2 3 4 4 4 5 5 5 5 5 6 6 6 6 7 7 7 7 7 7 8 8 9 9 9 9 9 10 12 15 16 17 17 18 19 18 18 18 18 18 18 18 17 16 16 16 17 17 18 18 19 20 22 24 26 28 30 31 32 34 36 37 39 40 41 41 41 40 38 37 35 33 33
11 8 4 2 2 3 4 4 3 4 5 4 3 4 5 4 5 5 4 4 5 4 4 5 5 5 6 6 6 7 7 7 8 9 9 9 9 9 8 9 11 12 13 12 12 13 14 15 15 15 16 16 16 16 15 14 14 15 15 14 15 16 17 19 22 24 25 26 28 30 31 33 34 35 37 39 39 39 39 39 39 39 39 37 36
7 4 2 3 2 3 3 3 2 3 3 3 3 4 4 3 3 3 3 3 3 3 3 4 5 5 6 6 7 7 7 7 8 8 8 9 9 9 9 10 10 10 10 11 12 12 13 13 14 14 14 14 14 14 13 13 13 14 14 13 14 17 20 21 23 23 23 24 26 27 29 30 32 32 34 35 37 38 39 40 41 41 42 42 39
3 2 2 3 3 2 2 1 0 1 1 1 1 2 2 2 2 2 2 2 2 2 3 3 4 5 6 7 7 8 8 7 7 7 8 9 9 9 9 10 10 10 11 12 13 14 14 13 14 14 13 13 12 12 12 12 12 12 13 13 15 19 21 22 22 22 22 23 25 25 26 28 29 30 31 32 34 36 38 40 41 41 41 40 39
1 2 2 3 2 2 1 2 2 1 1 0 1 0 0 1 1 1 1 1 1 2 2 3 4 5 5 5 6 6 7 7 7 7 7 8 8 8 9 11 12 12 13 13 14 15 15 15 14 14 13 12 12 12 12 12 12 12 13 15 17 19 20 20 21 21 22 23 25 27 27 28 29 29 30 31 32 33 35 37 39 39 39 38 37
4 4 4 4 4 3 3 4 3 3 2 1 1 1 1 1 1 1 1 1 2 2 3 3 4 5 5 5 6 7 7 7 7 6 6 7 8 9 10 11 12 13 14 15 15 16 15 14 14 14 13 12 12 12 12 12 12 14 16 17 18 18 19 19 20 20 20 22 25 27 28 29 30 31 32 32 32 33 34 34 35 36 37 37 36
Wind_Direction
226 226 225 224 223 224 226 226 225 224 224 225 225 223 223 225 228 227 223 223 225 226 230 234 238 240 237 236 237 237 233 231 238 248 252 254 255 256 259 257 256 256 254 253 255 261 266 266 265 267 269 270 270 271 275 280 285 290 292 293 294 295 294 291 291 296 304 309 309 310 309 308 310 311 309 309 309 308 306 307 309 312 316 316 315
226 226 225 224 225 225 226 228 228 227 226 227 227 226 226 225 226 228 227 225 226 229 234 237 241 244 243 244 244 241 237 235 242 254 260 262 263 263 264 263 263 263 261 258 258 262 266 265 265 266 269 270 273 274 276 278 282 287 292 295 298 302 300 296 292 295 301 307 308 309 311 311 311 312 310 311 311 310 311 314 318 320 321 320 319
228 226 224 224 226 227 228 229 230 230 230 230 229 230 230 230 229 230 230 228 227 229 232 237 242 244 245 247 247 245 242 242 248 257 262 265 265 265 267 267 267 270 270 267 264 264 266 266 266 268 269 270 273 275 276 277 280 283 287 290 293 298 301 299 295 295 299 303 307 311 314 315 316 317 316 316 319 321 323 328 329 326 326 325 322
231 230 226 224 225 228 232 234 234 234 234 234 233 232 234 234 233 232 233 234 235 234 235 238 240 243 245 246 247 247 245 244 247 251 254 258 260 262 265 266 267 269 270 269 268 267 267 268 267 266 268 270 272 275 277 280 284 287 290 291 291 293 295 294 294 294 296 299 305 310 314 316 317 319 320 321 322 323 326 329 330 328 328 328 325
235 236 236 234 233 234 237 240 241 240 239 239 239 238 238 238 236 235 234 237 241 243 243 243 245 246 247 246 245 245 244 245 247 248 251 253 255 259 263 265 268 269 269 269 269 268 268 268 269 269 271 275 277 279 281 283 286 289 292 296 297 295 292 290 290 291 292 297 302 307 309 310 310 312 317 320 321 322 323 325 324 324 322 321 321
241 241 242 242 241 241 241 241 243 242 241 242 243 243 243 242 240 239 238 239 243 247 250 251 251 252 251 249 246 243 242 244 246 248 249 249 251 256 261 264 267 269 271 273 273 274 273 272 272 272 274 277 280 283 286 288 288 290 291 293 295 296 295 293 290 289 290 293 297 300 302 303 303 306 310 315 319 321 322 320 319 319 319 316 314
241 243 245 246 246 244 242 239 238 238 238 239 240 243 245 245 243 241 241 241 243 247 252 255 256 255 254 252 248 244 241 240 242 241 240 243 248 254 259 264 267 269 272 275 276 277 277 277 278 278 280 282 285 289 292 294 294 293 293 294 294 293 293 292 287 285 287 289 293 296 298 299 300 302 305 307 311 315 317 318 317 316 316 315 313
238 242 246 249 250 248 246 243 241 239 239 239 240 241 243 245 245 244 243 242 243 245 248 251 253 254 253 252 249 245 241 237 237 237 237 241 247 254 260 263 267 270 271 274 277 278 279 280 280 281 284 287 290 292 294 296 297 296 296 298 297 295 294 292 288 285 286 288 290 293 295 297 298 300 302 303 305 309 313 316 317 317 316 314 312
235 240 244 247 249 250 250 249 246 244 243 243 243 243 244 245 247 248 247 246 245 245 245 247 248 248 249 249 248 246 243 239 236 236 241 248 252 258 261 261 264 267 267 268 272 273 275 279 281 283 287 289 290 291 293 296 298 297 298 298 296 295 294 292 290 288 288 290 291 294 296 297 300 302 303 304 306 309 311 314 316 317 317 313 309
236 237 239 242 244 246 248 249 249 247 244 242 242 243 244 245 247 249 251 251 249 247 245 244 245 245 246 246 247 248 248 245 239 235 236 242 249 257 260 261 261 263 264 264 264 265 267 270 274 277 279 283 286 288 290 293 294 295 297 297 296 294 290 288 287 287 288 289 290 293 295 296 299 303 305 307 311 312 313 315 314 314 314 311 307
235 231 230 234 238 240 243 245 245 245 244 241 240 241 244 245 245 247 248 250 251 249 246 243 243 245 246 247 248 250 251 250 246 239 234 232 236 243 248 253 255 255 257 258 257 259 263 267 271 273 272 273 278 280 281 283 285 287 288 289 289 289 288 286 285 285 286 287 289 291 292 294 299 303 306 309 312 311 311 311 312 313 313 311 308
234 235 232 232 234 236 239 240 241 242 243 241 240 241 244 245 245 246 247 248 248 248 247 245 244 246 249 251 251 252 252 253 251 246 240 235 236 240 243 247 250 252 254 255 255 257 259 264 272 275 275 274 277 280 280 279 280 281 279 279 279 280 283 285 285 285 286 287 288 289 290 294 298 300 303 305 305 304 304 305 307 308 308 308 308
224 230 232 233 234 235 235 236 238 240 241 241 240 241 243 245 246 247 249 249 248 247 247 246 245 246 250 253 254 253 253 253 253 250 245 241 242 246 250 252 255 256 257 259 260 261 262 264 268 271 273 274 275 277 278 278 277 277 275 275 274 274 276 278 281 284 287 289 290 290 291 294 296 295 297 299 298 298 299 300 301 301 302 303 304
184 193 204 216 222 221 219 221 226 232 236 238 238 240 242 245 246 247 247 247 247 246 245 245 245 247 250 252 252 253 252 252 251 250 247 244 244 249 255 260 262 264 265 265 265 265 266 267 267 267 269 270 272 274 274 274 273 273 274 274 274 274 275 275 278 281 285 288 291 291 291 292 293 292 292 292 293 295 295 295 295 296 297 298 300
142 147 154 164 173 181 191 200 207 213 220 226 230 233 236 239 240 242 242 243 245 246 246 247 249 250 251 251 250 250 251 251 251 250 248 247 247 250 256 262 266 269 271 271 270 268 267 268 269 269 269 270 273 275 275 274 273 273 273 273 273 274 274 275 279 282 285 288 290 291 291 290 289 290 290 290 289 290 291 291 291 292 294 296 298
119 124 127 130 134 139 147 165 179 186 194 202 211 215 217 221 227 231 236 240 244 246 247 248 249 248 249 249 248 249 251 252 252 253 252 252 252 254 258 263 267 269 272 276 276 275 273 271 272 273 274 275 277 277 277 278 277 277 276 275 275 275 275 278 280 283 286 288 290 292 293 291 288 287 287 288 288 287 287 286 288 290 292 295 297
111 113 112 112 111 110 111 116 124 137 153 164 182 197 200 202 204 207 212 214 216 224 234 242 245 244 242 242 244 247 250 251 253 254 255 256 257 260 262 264 266 266 269 274 278 280 280 279 280 280 280 280 280 280 281 281 281 282 281 280 279 278 279 281 282 284 286 288 291 293 294 292 290 286 285 285 285 285 283 284 288 291 292 293 297
110 109 107 103 98 95 95 96 99 105 112 117 122 135 151 165 174 183 193 197 199 211 247 264 256 243 236 238 243 245 247 249 251 252 253 255 257 261 265 267 268 268 269 272 276 279 280 280 281 282 282 283 283 283 284 284 284 284 284 283 282 281 282 282 282 284 286 288 291 293 293 292 290 287 285 284 283 281 280 284 290 291 290 292 296
112 111 109 108 107 109 109 107 107 110 110 108 107 107 107 109 113 116 121 126 153 234 248 256 252 237 228 230 235 239 243 247 251 253 256 259 262 265 268 268 268 268 271 273 276 277 278 279 279 279 279 280 280 281 281 281 281 280 280 280 280 281 282 282 283 285 287 288 290 291 290 291 291 289 286 283 281 278 278 284 288 288 288 291 294
117 115 115 116 118 121 124 124 122 120 114 111 112 111 105 97 93 89 83 81 83 110 199 228 240 238 230 223 223 231 242 251 259 264 266 269 272 274 275 274 273 275 277 279 280 280 280 279 278 277 276 276 276 277 277 277 276 276 276 277 278 279 281 282 283 285 285 286 288 289 288 289 291 291 289 286 284 281 280 281 282 282 284 286 288
127 127 127 127 125 123 123 125 126 126 122 120 122 122 118 110 103 97 87 85 91 106 127 161 214 237 240 226 225 238 251 265 276 282 283 283 282 282 284 286 287 289 290 289 288 286 281 276 273 273 273 273 273 274 275 275 275 274 274 274 276 278 280 281 283 284 284 285 285 286 286 287 288 290 289 288 287 285 285 284 283 282 282 283 284
133 140 145 151 153 148 141 132 130 131 131 133 141 143 142 144 142 134 129 127 130 129 120 116 106 35 9 3 2 354 345 336 324 318 316 311 303 298 295 292 290 291 291 290 290 287 283 281 280 280 279 277 277 277 279 280 279 277 276 275 275 277 278 280 282 285 287 287 286 285 285 285 286 285 284 284 285 285 286 285 284 284 283 283 284
141 151 160 170 175 175 173 168 162 161 158 160 169 170 169 176 182 176 174 177 178 171 155 149 244 316 324 328 331 332 333 334 332 329 324 320 320 318 312 307 303 299 293 290 290 289 286 285 284 284 283 284 285 286 288 290 288 285 281 278 277 280 283 284 286 287 288 288 287 286 287 287 286 285 283 283 283 283 284 283 284 285 284 284 284
181 188 195 204 211 209 203 193 186 186 189 192 197 200 197 198 198 198 202 207 214 223 232 244 265 281 294 303 308 311 314 314 313 311 307 306 310 313 313 316 317 314 306 301 299 297 294 290 287 284 283 284 286 287 286 286 285 282 280 279 279 282 286 288 289 290 291 291 290 289 289 291 290 289 286 286 287 287 287 288 288 288 287 287 288
229 230 227 227 235 239 241 238 222 205 201 204 210 216 221 226 229 231 235 239 245 253 259 264 270 276 282 287 289 292 295 296 295 294 292 292 294 294 296 301 305 306 305 301 297 295 295 295 294 291 289 287 286 286 283 280 278 277 278 280 283 288 291 292 293 295 296 296 294 293 293 293 292 290 290 292 294 295 295 295 294 293 292 292 291
253 257 257 251 247 242 241 248 249 241 233 227 225 227 229 234 241 249 255 260 262 263 266 269 274 277 280 282 283 284 285 286 287 288 288 289 290 290 290 291 292 294 293 291 290 290 289 290 290 290 289 288 286 287 286 284 282 279 277 277 279 285 293 297 299 301 301 300 299 298 296 295 293 292 293 295 296 297 297 297 297 296 296 296 295
252 254 254 254 253 246 241 242 242 243 246 246 249 253 252 250 254 259 263 268 272 274 272 272 273 275 277 278 279 280 281 281 282 284 284 283 281 281 281 282 283 286 285 284 285 286 286 287 288 289 290 291 291 291 289 288 287 284 282 281 277 272 273 279 282 286 287 287 287 288 290 293 295 296 296 297 297 298 298 298 298 297 297 297 296
246 241 235 235 237 235 236 236 230 228 227 221 229 251 269 272 270 269 269 269 273 277 279 277 272 270 271 272 274 276 277 278 278 278 279 278 277 277 278 280 282 285 287 288 289 291 292 293 292 292 293 292 291 289 287 287 287 288 290 291 286 281 278 275 271 270 273 277 280 282 287 293 297 298 298 298 298 298 298 297 297 296 296 296 293
241 225 211 205 201 203 209 210 208 203 191 187 200 209 214 229 258 272 277 278 277 281 284 285 285 283 279 277 276 277 278 279 281 280 281 282 283 286 289 292 294 295 297 299 301 303 303 303 302 301 301 300 298 297 296 296 297 298 300 302 301 299 297 292 285 280 279 283 288 291 294 297 299 300 300 301 301 300 299 299 299 297 294 293 292
242 222 207 189 174 168 170 181 186 177 161 166 198 219 232 243 256 269 285 292 291 288 281 277 281 286 292 293 295 295 293 292 293 292 292 293 294 296 299 301 303 305 306 308 311 312 312 311 310 309 309 309 309 309 308 307 307 307 307 308 308 308 308 305 302 297 292 289 289 292 294 296 297 297 298 300 301 299 299 303 306 305 299 294 292
166 179 175 156 135 133 141 155 166 169 167 171 188 210 234 253 264 271 275 277 284 293 295 289 285 282 285 293 298 301 303 305 305 305 305 304 304 304 305 307 308 310 311 313 315 316 316 316 316 315 315 314 313 313 313 312 311 311 310 310 310 309 308 307 306 305 303 299 296 295 296 296 296 297 298 300 300 297 297 300 302 304 304 300 296
135 145 145 129 103 114 137 142 149 158 164 172 185 198 211 234 259 271 270 266 271 281 287 291 292 287 283 284 290 295 295 295 298 302 304 305 306 306 307 307 308 309 310 312 313 312 313 314 315 315 316 316 315 315 316 315 315 314 313 312 312 311 310 309 308 307 307 306 303 303 302 301 301 301 300 300 299 297 297 297 297 299 303 304 302
82 121 139 146 149 162 160 160 163 165 165 169 183 193 197 201 221 247 261 267 272 276 277 278 279 277 274 273 276 281 286 288 290 293 296 299 301 302 303 303 303 303 305 307 308 309 309 310 311 313 314 315 315 315 316 316 316 316 315 314 314 313 312 311 310 309 309 308 307 307 306 306 305 303 302 301 301 300 300 299 298 299 300 300 298
46 46 50 53 59 195 190 188 177 175 182 184 179 184 194 195 197 205 222 245 263 271 273 271 266 263 265 269 271 274 279 284 288 291 293 296 298 299 300 301 300 299 299 300 302 303 304 305 306 308 311 313 314 315 316 317 316 316 315 314 313 313 312 311 310 310 309 309 308 308 308 308 307 306 304 304 303 303 303 302 301 300 300 298 297
40 42 36 23 359 312 268 244 220 207 211 204 193 204 216 216 217 216 212 213 223 237 251 258 259 260 263 267 272 275 277 280 283 288 292 295 296 297 299 300 300 299 300 301 300 299 299 300 301 303 305 308 310 313 314 316 317 318 317 315 314 313 312 311 311 310 310 310 309 309 309 309 309 308 307 306 305 305 305 304 303 303 302 302 301
21 20 9 354 327 289 272 257 246 245 243 232 223 230 231 231 236 237 234 233 233 234 238 245 253 262 269 272 274 274 276 279 283 286 290 292 293 295 297 296 293 294 300 303 301 300 299 299 299 300 302 303 305 307 310 312 314 314 314 314 314 314 314 313 312 311 310 309 309 309 309 310 310 309 309 307 306 305 305 304 304 303 303 303 303
4 358 345 330 309 285 274 264 256 258 257 253 253 253 248 243 245 244 245 247 247 248 252 251 254 262 271 274 275 274 274 276 279 282 286 288 290 292 292 285 279 284 289 291 293 294 297 297 297 299 302 303 303 304 307 309 311 312 312 312 312 312 311 311 311 310 310 309 309 308 308 308 308 308 308 307 307 306 304 304 303 302 301 301 302
350 343 331 321 310 295 284 275 266 265 263 260 260 259 255 253 255 255 255 254 253 256 262 263 262 264 266 270 276 277 276 276 278 280 283 286 288 288 284 278 278 280 280 280 284 287 290 292 293 295 300 302 304 306 309 312 314 314 314 314 313 312 312 310 309 309 309 308 308 307 307 307 307 307 307 307 306 306 305 305 304 303 302 301 301
337 332 326 321 315 303 294 285 272 267 264 263 268 268 264 261 261 261 258 257 259 260 260 261 264 266 266 270 278 282 282 281 281 280 278 279 278 275 272 272 274 275 275 278 280 282 286 291 292 294 299 302 304 306 310 313 315 316 316 315 314 314 314 314 311 310 308 307 307 307 306 306 306 305 305 305 305 305 305 305 305 305 303 302 301
327 324 321 317 312 306 298 287 269 264 269 276 278 275 269 263 260 257 255 257 260 261 260 260 262 265 265 264 269 276 283 285 284 281 279 278 276 273 272 272 271 270 273 277 280 282 286 289 290 295 299 302 303 306 308 310 312 315 316 314 311 312 313 313 312 310 309 308 307 306 305 304 303 303 304 304 304 304 304 303 303 303 303 303 303
320 318 315 311 309 304 295 279 266 266 276 284 284 278 268 260 253 247 249 254 255 256 258 257 255 257 263 268 272 277 280 281 281 281 280 280 279 276 272 270 268 269 272 278 282 285 287 288 290 294 298 300 301 304 307 309 310 311 312 311 309 309 310 310 310 310 310 309 307 305 303 302 301 302 302 302 302 302 302 302 301 300 301 301 302
319 316 311 308 306 301 292 281 273 271 279 286 282 270 256 247 240 237 241 242 243 249 255 255 251 254 263 270 274 275 274 274 277 278 277 277 277 275 271 269 269 269 273 279 283 284 284 286 290 293 294 296 300 302 304 306 308 308 308 308 307 307 308 308 308 309 310 309 307 304 302 301 301 301 301 301 302 302 301 300 299 299 299 300 301
315 312 310 308 304 299 293 286 281 279 277 271 264 249 240 240 238 236 237 241 248 257 257 253 252 254 260 267 272 274 275 275 273 272 273 273 272 272 274 273 271 270 274 280 284 285 285 287 289 290 291 293 296 299 300 302 304 305 305 306 305 305 306 305 304 305 305 304 303 303 302 303 302 301 299 299 300 299 299 297 297 297 299 300 301
310 308 308 305 298 293 289 285 283 277 258 245 235 221 228 239 241 242 243 246 251 256 252 246 247 251 258 267 274 277 277 273 269 269 271 270 269 270 271 269 268 270 275 279 281 283 286 289 290 291 292 293 294 297 299 301 302 303 303 303 303 303 302 301 299 298 297 297 298 300 302 302 302 301 300 300 300 299 297 295 295 296 298 299 299
306 305 302 297 292 288 284 278 258 232 226 226 225 222 229 237 241 247 254 252 249 253 258 256 253 257 264 271 273 272 270 271 271 268 264 261 264 268 271 270 270 271 274 278 280 283 286 289 290 291 292 294 295 297 298 299 299 299 299 299 299 299 298 298 295 293 291 291 292 295 297 298 299 299 299 299 298 297 295 294 294 295 297 297 296
303 301 295 288 278 250 231 225 224 226 227 229 238 243 243 246 250 254 260 261 257 260 264 260 257 261 268 269 267 267 267 267 264 261 259 263 270 276 276 274 274 275 276 279 281 283 285 288 289 290 292 294 295 296 296 296 296 295 295 294 294 293 294 294 291 289 289 289 288 288 289 290 293 294 296 297 297 296 295 294 294 293 294 293 293
302 297 278 241 219 227 232 229 233 242 247 252 256 256 257 261 263 261 261 258 255 257 256 250 249 258 267 270 268 267 266 264 264 266 268 273 278 282 280 276 279 283 284 283 282 284 287 289 289 290 291 292 293 294 294 293 294 294 294 293 292 292 293 292 290 288 289 288 287 285 285 286 288 290 293 295 297 297 296 295 295 295 295 294 294
294 279 231 205 203 217 231 241 249 258 257 256 257 260 258 254 251 247 245 247 250 253 254 253 254 259 263 264 264 267 269 272 274 275 276 279 282 281 278 279 284 289 289 286 287 290 292 292 291 292 293 293 293 293 293 293 294 295 295 294 294 296 298 298 296 294 293 290 287 286 285 285 286 289 292 294 296 297 297 296 296 296 296 296 295
273 243 200 195 195 198 209 218 249 293 281 265 242 236 232 233 244 252 256 257 259 260 264 267 273 276 274 270 270 273 276 279 280 280 282 284 285 284 282 283 288 291 291 292 296 299 300 298 297 297 296 295 294 293 293 294 296 296 295 297 300 301 302 300 299 299 298 295 292 290 289 288 288 290 292 294 295 296 296 297 297 297 297 296 294
178 144 140 153 162 154 111 83 63 32 2 158 131 57 320 280 274 271 275 288 294 290 287 291 297 302 302 300 299 299 296 292 290 290 289 289 289 289 290 292 295 298 300 303 306 307 307 305 303 301 299 297 296 296 297 297 298 299 301 303 304 302 300 298 298 299 300 299 297 297 297 297 297 296 296 295 295 294 295 296 297 298 297 295 293
122 115 106 103 98 81 68 59 44 33 47 95 98 35 23 357 321 311 307 324 325 321 319 321 322 321 321 322 321 322 321 314 303 293 292 295 296 294 296 302 307 310 312 313 313 313 312 310 308 306 304 301 299 299 299 300 301 303 305 306 305 303 303 303 303 303 302 300 299 300 302 303 304 303 302 301 299 297 295 295 294 294 294 294 292